Belize, Belize

7:08 PM CST on October 23, 2017 (GMT -0600)
Philip S W Goldson International

Weather History for MZBZ - December, 2012

Change the Weather History Date:

Thursday, December 27, 2012

  Actual Average Record
Temperature  
Mean Temperature 76 °F -  
Max Temperature 80 °F - 87 °F (1997)
Min Temperature 72 °F 67 °F 59 °F (2006)
Cooling Degree Days 11    
Growing Degree Days 26 (Base 50)    
Moisture  
Dew Point 74 °F    
Average Humidity 92    
Maximum Humidity 100    
Minimum Humidity 81    
Precipitation  
Precipitation 0.02 in 0.19 in - ()
Sea Level Pressure  
Sea Level Pressure 29.92 in    
Wind  
Wind Speed 3 mph ()    
Max Wind Speed 7 mph    
Max Gust Speed -    
Visibility 6.6 miles    
Events Fog , Rain    
Averages and records for this station are not official NWS values.
T = Trace of Precipitation, MM = Missing Value Source: Averaged Metar Reports

Daily Weather History Graph

Daily Weather History Graph

Search for Another Location

Airport or City:

Trip Planner

Search our weather history database for the weather conditions in past years. The results will help you decide how hot, cold, wet, or windy it might be!

Date:

Astronomy

Dec. 27, 2012 Rise Set
Actual Time 6:21 AM CST 5:27 PM CST
Civil Twilight 5:58 AM CST 5:50 PM CST
Nautical Twilight 5:31 AM CST 6:18 PM CST
Astronomical Twilight 5:04 AM CST 6:44 PM CST
Moon 5:05 PM CST (12/27) 5:36 AM CST (12/27)
Length of Visible Light 11h 52m
Length of Day
11h 05m
Full, 100% of the Moon is Illuminated
Dec 27
Full
Dec 28
Full
Jan 4
Last Quarter
Jan 11
New
Jan 18
First Quarter

Hourly Weather History & Observations

Time (CST) Temp. Heat Index Dew Point Humidity Pressure Visibility Wind Dir Wind Speed Gust Speed Precip Events Conditions
12:00 AM 73 °F - 74 °F 100% 29.95 in 12 mi Calm Calm - -   Scattered Clouds
3:00 AM 75 °F - 74 °F 98% 29.92 in 0 mi NNW 5.8 mph - - Fog Heavy Fog
5:00 AM 73.4 °F - 71.6 °F 94% 29.92 in 6.2 mi NNW 5.8 mph - N/A   Mostly Cloudy
6:00 AM 74 °F - 72 °F 91% 29.95 in 12 mi WNW 3.5 mph - -   Partly Cloudy
6:00 AM 73.4 °F - 71.6 °F 94% 29.95 in 6.2 mi WNW 3.5 mph - N/A   Mostly Cloudy
7:00 AM 73.4 °F - 71.6 °F 94% 29.95 in 6.2 mi NNW 4.6 mph - N/A   Mostly Cloudy
8:00 AM 73.4 °F - 73.4 °F 100% 29.98 in 3.1 mi NNW 4.6 mph - N/A   Mostly Cloudy
9:00 AM 75 °F - 72 °F 88% 30.00 in 3 mi NNW 5.8 mph - -   Partly Cloudy
9:00 AM 75.2 °F - 71.6 °F 89% 29.99 in 3.1 mi NNW 5.8 mph - N/A   Mostly Cloudy
10:00 AM 77.0 °F - 73.4 °F 89% 29.98 in 5.0 mi NW 5.8 mph - N/A   Mostly Cloudy
11:00 AM 77.0 °F - 73.4 °F 89% 29.97 in 5.0 mi WNW 6.9 mph - N/A   Mostly Cloudy
12:00 PM 78 °F - 74 °F 83% 29.94 in 11 mi WNW 5.8 mph - -   Partly Cloudy
12:00 PM 78.8 °F - 73.4 °F 83% 29.94 in 6.2 mi WNW 5.8 mph - N/A   Mostly Cloudy
1:00 PM 77.0 °F - 75.2 °F 94% 29.91 in 6.2 mi West 4.6 mph - N/A Rain Light Rain Showers
2:00 PM 78.8 °F - 75.2 °F 89% 29.88 in 6.2 mi West 4.6 mph - N/A   Scattered Clouds
3:00 PM 80 °F - 75 °F 81% 29.87 in 12 mi WSW 3.5 mph - - Rain Light Rain Showers
3:00 PM 80.6 °F 86.2 °F 75.2 °F 84% 29.87 in 6.2 mi WSW 3.5 mph - N/A Rain Light Rain Showers
4:00 PM 78.8 °F - 75.2 °F 89% 29.86 in 6.2 mi WNW 3.5 mph - N/A   Mostly Cloudy
5:00 PM 78.8 °F - 75.2 °F 89% 29.87 in 6.2 mi WNW 4.6 mph - N/A   Mostly Cloudy
6:00 PM 77 °F - 76 °F 95% 29.87 in 12 mi Calm Calm - - Rain Light Rain Showers
6:00 PM 77.0 °F - 75.2 °F 94% 29.87 in 6.2 mi Calm Calm - N/A   Mostly Cloudy
7:00 PM 77.0 °F - 75.2 °F 94% 29.88 in 6.2 mi WNW 3.5 mph - N/A   Mostly Cloudy
8:00 PM 77.0 °F - 75.2 °F 94% 29.90 in 6.2 mi Calm Calm - N/A   Mostly Cloudy
9:00 PM 76 °F - 75 °F 94% 29.91 in 6 mi Calm Calm - - Rain Light Rain
9:00 PM 77.0 °F - 75.2 °F 94% 29.91 in 6.2 mi Calm Calm - N/A Rain Light Rain
10:00 PM 75.2 °F - 73.4 °F 94% 29.89 in 6.2 mi Calm Calm - N/A   Mostly Cloudy
11:00 PM 75.2 °F - 73.4 °F 94% 29.89 in 6.2 mi Calm Calm - N/A   Mostly Cloudy